Regional Weather Roundup
Issued by NWS Little Rock, AR

Home | Current Version | Previous Version | Graphics & Text | Print | Product List | Glossary On
Versions: 1 2 3 4 5 6 7 8 9 10 11 12 13 14 15 16 17 18 19 20 21 22 23 24 25 26 27 28 29 30 31 32
000
ASUS44 KLZK 182105
RWRLZK

WEATHER ROUNDUP FOR ARKANSAS
NATIONAL WEATHER SERVICE LITTLE ROCK AR
300 PM CST WED JAN 18 2017

NOTE: "FAIR" INDICATES FEW OR NO CLOUDS BELOW 12,000 FEET WITH NO
SIGNIFICANT WEATHER AND/OR OBSTRUCTIONS TO VISIBILITY.

ARZ001-003-010-029-182200-
NORTHWEST ARKANSAS

CITY           SKY/WX    TMP DP  RH WIND       PRES   REMARKS
FAYETTEVILLE   CLOUDY    49  46  90 CALM      30.04F FOG
FORT SMITH     CLOUDY    47  43  86 E12       30.04F
HARRISON       CLOUDY    43  41  93 SE8       30.07F
BENTONVILLE    CLOUDY   N/A N/A N/A CALM      30.05F
ROGERS         LGT RAIN  47  42  83 E3        30.06S
SILOAM SPGS    CLOUDY    52  43  71 CALM      30.03F
HIGHFILL       CLOUDY    50  43  77 S6        30.04F
SPRINGDALE     CLOUDY    48  46  93 SE3       30.06F FOG
$$

ARZ004-005-016-182200-
NORTH CENTRAL ARKANSAS

CITY           SKY/WX    TMP DP  RH WIND       PRES   REMARKS
BATESVILLE     CLOUDY    46  39  76 E8        30.13F
FLIPPIN        CLOUDY    45  36  70 E6        30.07F
MTN HOME       CLOUDY    43  39  86 SE5       30.08F
$$

ARZ040-041-182200-
WEST CENTRAL ARKANSAS

CITY           SKY/WX    TMP DP  RH WIND       PRES   REMARKS
MENA           CLOUDY    46  46 100 E9        30.02F VSB 1/4
MOUNT IDA      CLOUDY    47  44  90 VRB6      30.02F FOG
$$

ARZ009-017-025-026-028-182200-
NORTHEAST ARKANSAS

CITY           SKY/WX    TMP DP  RH WIND       PRES   REMARKS
CORNING        CLOUDY    45  41  87 NE7       30.14F
JONESBORO      CLOUDY    47  42  83 NE10      30.13F
NEWPORT        CLOUDY    48  43  82 E8        30.13F
WALNUT RIDGE   CLOUDY    45  39  81 NE8       30.13F
BLYTHEVILLE    CLOUDY    49  43  80 NE5       30.14F
NW BLYTHEVILLE CLOUDY    48  43  81 E5        30.14S
$$

ARZ022-023-033-042-044-182200-
CENTRAL ARKANSAS

CITY           SKY/WX    TMP DP  RH WIND       PRES   REMARKS
LITTLE ROCK    CLOUDY    48  44  86 NE8       30.09F
N LITTLE ROCK    N/A     47  43  84 E6        30.12F
JACKSONVILLE   CLOUDY    49  43  81 VRB7      30.08F
SEARCY         CLOUDY    49  44  83 NE9       30.12F
HOT SPRINGS    CLOUDY    48  47  96 E7        30.07F
RUSSELLVILLE   CLOUDY    47  42  83 E5        30.09F
CLINTON        CLOUDY    46  43  87 CALM      30.11R
$$

ARZ036-182200-
EAST ARKANSAS

CITY           SKY/WX    TMP DP  RH WIND       PRES   REMARKS
WEST MEMPHIS   CLOUDY    53  45  74 NE5       30.11S
$$

ARZ050-053-066-070-073-182200-
SOUTHWEST ARKANSAS

CITY           SKY/WX    TMP DP  RH WIND       PRES   REMARKS
ARKADELPHIA    LGT RAIN  48  47  96 E6        30.09S
CAMDEN         LGT RAIN  50  48  93 N6        30.09R VSB 1
TEXARKANA      LGT RAIN  50  50 100 E9        29.99F
EL DORADO      LGT RAIN  52  51  97 NE9       30.07S FOG
DE QUEEN       CLOUDY    50  50 100 E8        30.00F FOG
$$

ARZ056-057-069-182200-
SOUTHEAST ARKANSAS

CITY           SKY/WX    TMP DP  RH WIND       PRES   REMARKS
PINE BLUFF     LGT RAIN  50  48  93 N5        30.09S FOG
STUTTGART      CLOUDY    50  39  66 N8        30.10S
MONTICELLO     CLOUDY    52  50  93 VRB3      30.06R

$$






USA.gov is the U.S. government's official web portal to all federal, state and local government web resources and services.